Wind_Speed
19 20 20 20 20 19 18 19 19 20 21 22 22 22 21 21 21 21 20 20 20 20 21 21 21 22 22 22 23 24 24 24 24 24 23 23 23 23
21 21 21 21 20 20 20 21 21 21 21 22 22 22 22 21 21 21 21 21 21 22 22 22 22 22 23 23 24 24 24 25 26 26 26 25 25 24
22 22 22 21 21 21 22 23 23 22 22 22 22 22 22 22 22 22 22 22 22 23 23 23 24 24 25 25 25 25 25 25 26 26 26 26 26 26
23 22 22 23 22 23 24 24 23 23 23 22 22 23 23 23 24 24 24 24 25 25 25 24 25 26 26 26 26 27 27 27 27 27 27 27 27 27
23 23 24 25 25 25 25 25 25 24 24 23 23 24 24 24 24 25 26 26 26 26 26 26 26 26 26 26 27 27 27 28 28 28 28 28 28 28
25 25 26 26 27 27 26 26 26 25 25 25 25 24 24 25 25 25 25 26 27 27 27 27 27 26 26 26 26 27 27 27 28 28 28 28 29 29
27 27 28 28 28 28 28 27 26 26 25 26 25 25 25 25 26 26 26 27 27 28 28 28 27 26 26 27 27 28 28 28 28 28 28 28 29 30
29 29 29 29 29 29 29 28 27 27 26 26 26 26 27 27 26 26 27 27 27 27 27 27 28 27 27 27 28 28 29 29 29 29 29 29 30 30
29 30 30 30 29 29 29 29 28 28 28 27 27 27 27 28 27 27 27 28 28 28 28 28 28 28 28 28 27 27 28 28 29 29 29 30 30 30
29 29 29 30 29 29 29 29 29 28 28 28 28 28 28 28 29 28 28 28 28 28 29 28 28 29 29 29 29 28 29 29 29 29 29 30 30 30
29 29 29 29 29 29 29 29 29 29 29 29 29 29 29 29 30 29 29 29 28 29 29 29 29 29 28 28 28 29 29 29 29 29 30 30 30 30
30 29 29 29 29 29 29 29 29 29 30 30 30 30 30 30 30 30 30 30 29 29 29 29 28 28 28 29 29 29 29 29 29 30 29 29 29 30
29 29 29 28 29 29 29 29 29 29 29 30 30 30 30 30 30 30 30 30 30 29 29 29 29 29 29 29 29 29 29 29 29 29 29 29 29 30
29 28 28 28 28 28 28 28 28 29 29 29 29 30 30 30 30 30 30 30 30 29 29 29 30 29 29 29 29 29 29 29 30 29 30 30 30 30
29 28 28 28 28 28 28 28 28 28 29 29 29 29 30 30 30 30 30 30 30 30 29 29 29 29 29 29 28 29 29 29 29 28 29 29 29 30
29 28 28 28 29 28 28 28 28 29 29 29 29 29 29 29 30 30 30 30 29 29 29 29 29 29 28 28 28 29 29 28 28 28 28 29 30 30
29 29 29 29 29 29 29 29 29 29 28 29 28 28 28 29 29 29 29 29 28 28 28 28 28 27 27 28 28 29 29 29 29 29 28 29 29 30
29 29 29 29 29 29 29 29 29 29 28 28 28 28 27 28 27 27 27 27 27 27 27 27 27 27 27 27 28 28 28 29 29 28 29 28 28 28
30 30 29 29 29 29 29 29 29 29 28 28 28 28 27 27 27 26 27 27 26 26 26 27 26 26 26 26 27 27 27 28 28 28 28 28 27 27
31 30 30 30 30 30 29 29 29 28 28 27 27 27 27 27 27 27 27 27 27 27 26 26 26 26 26 26 25 26 27 27 27 27 27 27 27 27
30 30 30 30 30 30 30 30 29 28 27 27 27 27 28 27 27 26 26 27 27 27 26 26 26 26 26 26 25 25 26 26 26 26 27 27 27 26
28 28 29 30 30 30 31 31 29 28 27 27 28 28 28 28 27 26 27 27 26 26 25 25 26 26 26 26 25 25 25 26 26 26 26 25 25 25
28 28 29 29 29 29 29 30 29 28 28 28 29 29 28 28 27 27 27 26 25 25 24 24 25 26 25 25 25 24 24 24 25 25 24 23 23 23
Wind_Direction
293 294 295 293 290 288 289 290 290 289 288 286 285 284 283 282 278 278 274 273 272 273 273 272 270 268 268 266 265 263 262 260 260 259 258 258 258 259
291 291 291 293 293 290 290 291 291 290 288 285 283 280 279 280 277 278 276 276 274 274 273 272 271 270 268 267 266 265 263 262 260 259 258 258 259 260
289 290 291 293 294 294 293 293 291 290 288 284 282 281 279 277 276 276 277 277 277 278 276 274 272 270 269 268 266 264 264 262 260 259 258 258 258 259
291 291 292 293 294 293 294 294 293 290 287 284 283 281 279 276 274 274 275 275 274 276 276 275 273 271 269 268 267 264 262 261 259 258 257 257 258 258
293 292 292 291 290 292 292 291 291 290 288 286 283 281 281 279 277 276 275 274 274 275 274 275 275 272 270 269 268 266 263 262 261 259 257 257 257 257
291 291 291 291 291 291 291 291 291 288 285 285 284 282 280 279 278 277 275 275 275 275 274 273 274 273 271 270 268 267 265 264 263 261 259 258 258 258
290 290 289 289 290 290 290 290 289 288 286 284 284 282 281 281 279 277 275 275 275 274 273 273 273 272 271 270 268 267 266 265 263 262 260 260 259 259
289 288 288 288 288 288 288 288 287 286 285 284 283 283 282 282 281 279 276 274 274 273 273 273 272 271 270 270 269 268 267 266 264 263 262 262 260 259
291 289 288 287 287 288 287 286 285 284 283 282 281 281 281 282 281 279 277 276 274 273 272 273 272 270 271 270 270 268 266 265 265 264 263 262 261 260
293 293 291 289 288 286 285 285 284 283 283 283 282 281 280 280 280 281 280 277 274 274 273 273 272 272 272 270 268 268 266 265 265 264 264 263 262 261
295 295 295 293 290 288 286 285 283 282 282 281 282 282 280 280 280 280 280 278 276 274 273 273 272 272 271 270 269 268 267 265 265 264 264 262 261 260
295 295 295 293 291 289 288 286 284 282 282 282 282 282 281 280 280 280 280 279 277 274 273 272 271 271 271 271 269 268 267 267 265 265 264 263 261 260
295 295 295 294 292 291 289 287 285 284 284 283 283 282 281 280 280 279 279 279 277 275 274 271 271 272 272 270 269 268 268 267 266 263 263 262 260 261
294 294 293 293 293 292 291 289 287 286 285 284 283 283 283 282 281 281 280 279 277 276 274 272 272 273 272 271 269 268 268 268 267 264 263 261 261 261
295 294 294 293 293 293 292 291 289 288 286 285 285 284 284 283 282 282 281 280 277 275 274 273 274 274 273 272 270 269 268 267 266 264 263 261 261 261
296 294 293 294 293 292 291 291 291 290 288 286 285 285 284 283 283 281 281 280 277 275 275 273 274 274 272 271 269 269 267 266 265 263 263 262 263 262
294 294 294 294 294 293 292 292 292 291 288 287 286 285 284 285 283 281 279 278 277 275 275 275 276 276 273 271 269 268 267 266 265 264 264 264 264 262
294 294 294 295 295 293 292 292 291 290 289 287 286 285 285 284 283 281 280 279 278 278 277 277 276 274 274 272 270 269 268 266 265 264 263 263 263 262
295 295 293 294 295 294 292 292 292 290 288 287 285 285 284 282 281 282 281 279 278 278 278 276 274 274 274 273 272 271 270 268 267 264 263 263 262 261
295 294 295 294 293 293 293 292 291 289 288 287 286 284 284 283 283 282 281 280 279 278 276 274 274 274 275 272 271 272 271 269 267 266 265 263 262 260
296 295 296 296 295 294 294 293 291 290 290 288 287 287 286 284 283 282 282 281 281 279 276 273 274 275 275 274 271 270 271 270 268 268 267 264 261 259
297 297 297 297 296 296 295 293 292 291 289 288 288 288 287 285 284 282 281 281 280 280 278 275 274 274 274 274 274 272 270 269 268 269 269 265 262 258
298 298 298 299 298 297 296 294 292 291 290 290 290 289 288 286 283 283 283 282 281 280 277 275 274 274 274 273 274 273 272 270 268 267 266 264 261 256
Height
5847 5845 5844 5842 5840 5838 5837 5836 5834 5832 5831 5829 5827 5825 5823 5822 5821 5820 5819 5818 5817 5816 5816 5815 5814 5814 5814 5814 5814 5814 5814 5815 5815 5815 5816 5816 5817 5817
5841 5840 5838 5836 5834 5832 5830 5829 5827 5826 5824 5822 5820 5819 5817 5816 5815 5814 5813 5812 5811 5810 5809 5808 5808 5807 5807 5807 5807 5807 5807 5807 5808 5808 5809 5809 5810 5811
5835 5833 5832 5830 5828 5826 5824 5822 5820 5819 5817 5816 5814 5812 5811 5810 5808 5807 5806 5805 5804 5803 5802 5801 5801 5800 5800 5800 5800 5800 5800 5800 5800 5800 5801 5802 5803 5804
5828 5827 5825 5824 5822 5820 5817 5815 5813 5811 5810 5809 5807 5805 5804 5802 5801 5800 5799 5798 5797 5796 5795 5794 5793 5793 5792 5792 5792 5791 5792 5792 5792 5792 5793 5794 5795 5796
5822 5820 5819 5817 5815 5813 5810 5808 5806 5804 5803 5801 5800 5798 5796 5795 5794 5793 5791 5791 5790 5789 5788 5787 5786 5785 5784 5784 5783 5783 5783 5784 5784 5784 5785 5786 5786 5787
5814 5813 5811 5809 5807 5805 5803 5801 5799 5797 5795 5794 5792 5790 5789 5787 5786 5785 5784 5782 5782 5781 5780 5779 5778 5777 5776 5776 5775 5775 5775 5775 5775 5776 5777 5777 5778 5778
5807 5805 5803 5801 5799 5797 5795 5793 5791 5789 5787 5786 5784 5783 5781 5780 5778 5777 5776 5775 5774 5773 5771 5770 5770 5769 5768 5767 5767 5767 5766 5766 5767 5767 5768 5768 5769 5770
5799 5797 5795 5793 5791 5789 5786 5785 5783 5781 5779 5778 5776 5775 5773 5772 5770 5769 5768 5767 5766 5765 5763 5762 5761 5761 5760 5759 5758 5758 5758 5757 5758 5758 5759 5759 5760 5761
5791 5788 5786 5784 5782 5780 5778 5776 5774 5773 5771 5770 5768 5766 5765 5764 5762 5761 5759 5758 5757 5756 5755 5754 5752 5752 5751 5750 5749 5748 5748 5748 5748 5749 5749 5749 5750 5751
5782 5780 5777 5775 5773 5771 5769 5767 5765 5764 5762 5761 5759 5758 5756 5754 5753 5752 5750 5749 5748 5746 5745 5745 5743 5742 5741 5740 5739 5739 5739 5739 5739 5739 5739 5740 5740 5740
5774 5771 5769 5766 5764 5762 5760 5758 5756 5755 5753 5751 5750 5748 5746 5745 5744 5742 5741 5740 5739 5738 5736 5735 5734 5733 5732 5731 5730 5730 5729 5729 5729 5729 5730 5730 5730 5730
5766 5763 5760 5758 5755 5753 5751 5749 5747 5745 5744 5742 5740 5739 5737 5736 5734 5733 5732 5731 5729 5728 5727 5725 5724 5723 5723 5722 5721 5720 5720 5720 5720 5720 5720 5720 5721 5721
5757 5755 5752 5749 5747 5744 5742 5740 5738 5736 5734 5732 5731 5729 5728 5727 5725 5723 5722 5721 5719 5718 5717 5715 5714 5713 5713 5712 5711 5711 5710 5710 5710 5710 5710 5710 5711 5712
5749 5746 5743 5741 5738 5736 5733 5731 5729 5727 5725 5723 5722 5720 5719 5717 5715 5714 5712 5710 5709 5708 5706 5705 5704 5704 5703 5702 5702 5701 5701 5701 5700 5700 5700 5701 5701 5702
5741 5738 5735 5733 5730 5727 5725 5722 5720 5718 5716 5714 5713 5711 5709 5708 5706 5704 5702 5701 5699 5697 5696 5695 5695 5694 5693 5692 5692 5691 5691 5691 5691 5690 5690 5691 5692 5692
5732 5730 5727 5724 5721 5719 5716 5714 5711 5709 5707 5705 5704 5702 5700 5698 5696 5695 5693 5691 5690 5688 5687 5686 5685 5684 5683 5683 5682 5682 5681 5681 5681 5681 5681 5682 5682 5683
5724 5721 5718 5716 5713 5710 5708 5705 5702 5700 5698 5696 5694 5692 5690 5689 5687 5685 5683 5681 5680 5679 5678 5677 5675 5674 5673 5673 5673 5672 5672 5672 5672 5672 5672 5673 5673 5674
5715 5713 5710 5707 5704 5701 5699 5696 5694 5691 5689 5687 5685 5683 5681 5679 5678 5676 5674 5672 5671 5670 5669 5667 5666 5665 5664 5664 5663 5663 5662 5662 5662 5662 5663 5663 5664 5665
5707 5704 5701 5699 5696 5693 5690 5688 5685 5683 5680 5678 5676 5674 5672 5671 5669 5667 5666 5664 5662 5661 5660 5659 5658 5657 5656 5655 5654 5653 5653 5653 5653 5653 5654 5654 5655 5656
5697 5695 5692 5690 5687 5684 5681 5679 5676 5674 5671 5669 5667 5665 5663 5662 5660 5659 5657 5655 5654 5653 5651 5650 5649 5647 5647 5647 5646 5645 5644 5644 5644 5644 5645 5645 5646 5647
5688 5685 5683 5680 5677 5675 5672 5670 5668 5665 5662 5660 5658 5656 5654 5653 5651 5650 5648 5646 5645 5643 5642 5641 5640 5638 5637 5637 5637 5637 5636 5635 5635 5635 5635 5636 5637 5638
5680 5677 5674 5671 5669 5666 5663 5661 5658 5656 5654 5652 5650 5647 5646 5644 5642 5641 5639 5637 5636 5634 5633 5632 5631 5630 5629 5629 5628 5628 5628 5627 5626 5626 5626 5627 5628 5630
5672 5669 5666 5663 5660 5657 5655 5652 5650 5647 5645 5643 5641 5639 5637 5635 5633 5632 5630 5628 5627 5626 5625 5624 5623 5622 5621 5620 5620 5620 5619 5619 5618 5618 5618 5619 5620 5621